Simultaneous Nadir Overpasses (SNOs) Predictions

Prediction of SNOs between LANDSAT-8 and METOP-B Satellite Orbit:

Table of predicted SNOs for the next 14.0 days since TLE Epoch: 5/21/2016
Index Date (LANDSAT-8) Time (LANDSAT-8) Lat,Lon (LANDSAT-8) SZA (LANDSAT-8 ) Date (METOP-B) Time (METOP-B) Lat,Lon (METOP-B) SZA (METOP-B ) Distance(km) Time Diff (sec)
1 05/21/2016 11:38:15 81.09, 44.85 62.96 05/21/2016 11:37:33 81.08, 44.71 62.92 2.59 42
2 05/21/2016 12:27:41 -81.10,-147.22 117.01 05/21/2016 12:28:12 -81.10,-147.20 116.99 0.35 31
3 05/24/2016 07:12:31 81.07, 111.05 62.39 05/24/2016 07:11:56 81.07, 110.94 62.36 2.02 35
4 05/24/2016 08:01:57 -81.09, -80.98 117.57 05/24/2016 08:02:35 -81.10, -80.97 117.55 0.62 38
5 05/27/2016 02:46:47 81.08, 177.57 61.91 05/27/2016 02:46:19 81.08, 177.51 61.89 1.00 28
6
